Location: G�migny
(47.9646°N, 1.6950°E)
Time: 08:12:35
(UTC+00:00)

NOSS 3-2 (C) - Pass Details

Date: 23 October 2019
Orbit: 818 x 1394 km, 63.4° (Epoch: 11 November)

Event Time Altitude Azimuth Distance (km) Brightness Sun altitude
Rises 18:18:27 0° 203° (SSW) 3,389 6.7 -15.3°
Reaches altitude 10° 18:20:50 10° 199° (SSW) 2,498 5.9 -15.7°
Maximum altitude 18:26:28 57° 122° (ESE) 1,085 3.5 -16.7°
Enters shadow 18:31:43 15° 48° (NE) 2,423 5.2 -17.6°
